GW1129 Weather Reports


time (UTC)temp
F
wind
direction
speed
knots
gust
knots
rain 1hr
in
rain 24hr
in
rain mn
in
humidity
%
barometer
mb
20260504050113 44 0 0.9 1.7 0.00 0.00 0.00 67 1015.5
20260504044556 43 0 0.0 0.0 0.00 0.00 0.00 74 1015.4
20260504043104 43 0 0.0 0.0 0.00 0.00 0.00 75 1015.4
20260504041600 43 0 0.0 0.0 0.00 0.00 0.00 75 1015.3
20260504040105 43 0 0.0 0.0 0.00 0.00 0.00 76 1015.4
20260504034606 43 0 0.0 0.9 0.00 0.00 0.00 76 1015.1
20260504033100 43 0 0.0 0.0 0.00 0.00 0.00 76 1015.1
20260504031608 43 0 0.0 0.9 0.00 0.00 0.00 75 1014.9
20260504030114 43 0 0.0 0.0 0.00 0.00 0.00 76 1014.8
20260504024556 43 0 0.0 0.0 0.00 0.00 0.00 74 1014.7
20260504023057 43 0 0.0 0.0 0.00 0.00 0.00 74 1014.6
20260504021609 43 0 0.0 0.0 0.00 0.00 0.00 73 1014.8
20260504020056 44 0 0.0 0.0 0.00 0.00 0.00 73 1014.8
20260504014558 45 0 0.0 0.0 0.00 0.00 0.00 69 1014.6
20260504013055 45 0 0.0 0.0 0.00 0.00 0.00 65 1014.7
20260504011556 46 0 0.0 0.0 0.00 0.00 0.00 64 1014.6
20260504010054 47 0 0.0 0.0 0.00 0.00 0.00 63 1014.5
20260504004557 48 0 0.0 0.0 0.00 0.00 0.00 55 1014.3
20260504003055 49 0 0.0 0.0 0.00 0.00 0.00 51 1014.1
20260504001556 51 0 0.0 0.0 0.00 0.00 0.00 45 1014.2
20260504000136 54 0 0.0 0.0 0.00 0.00 0.00 42 1014.2
20260503234554 56 0 0.0 1.7 0.00 0.00 0.00 37 1013.8
20260503233057 57 252 0.9 4.3 0.00 0.00 0.00 34 1013.8
20260503231558 59 222 0.9 7.8 0.00 0.00 0.00 34 1013.6
20260503230058 59 252 1.7 6.1 0.00 0.00 0.00 32 1013.7
20260503224556 59 244 3.5 6.1 0.00 0.00 0.00 31 1013.6
20260503223054 59 240 1.7 8.7 0.00 0.00 0.00 33 1013.4
20260503221554 59 218 5.2 10.4 0.00 0.00 0.00 30 1013.5
20260503220056 59 197 3.5 9.6 0.00 0.00 0.00 32 1013.4
20260503214556 59 231 8.7 14.8 0.00 0.00 0.00 30 1013.5
20260503213058 59 200 3.5 11.3 0.00 0.00 0.00 31 1013.5
20260503211601 59 13 3.5 10.4 0.00 0.00 0.00 32 1013.5
20260503210056 60 255 6.1 13.9 0.00 0.00 0.00 32 1013.6
20260503204558 60 246 6.1 13.9 0.00 0.00 0.00 31 1013.5
20260503203057 59 242 3.5 13.9 0.00 0.00 0.00 32 1013.7
20260503201559 60 254 5.2 13.0 0.00 0.00 0.00 32 1013.8
20260503200058 59 259 9.6 17.4 0.00 0.00 0.00 32 1013.8
20260503194601 59 262 5.2 13.0 0.00 0.00 0.00 34 1014.1
20260503193056 59 234 7.0 16.5 0.00 0.00 0.00 34 1014.1
20260503191556 58 283 7.0 15.6 0.00 0.00 0.00 34 1014.3
20260503190057 57 242 7.0 16.5 0.00 0.00 0.00 34 1014.5
20260503184619 58 188 4.3 16.5 0.00 0.00 0.00 32 1014.6
20260503183103 58 259 4.3 13.0 0.00 0.00 0.00 32 1015.0
20260503181603 58 17 2.6 13.9 0.00 0.00 0.00 33 1014.8
20260503180109 58 176 2.6 10.4 0.00 0.00 0.00 36 1015.2
20260503174601 56 262 7.0 13.0 0.00 0.00 0.00 35 1015.1
20260503173100 56 250 4.3 14.8 0.00 0.00 0.00 34 1015.3
20260503171612 56 264 6.1 14.8 0.00 0.00 0.00 33 1015.2
20260503170106 56 42 2.6 13.0 0.00 0.00 0.00 35 1015.4
20260503090117 40 199 1.7 3.5 0.00 0.00 0.00 70 1013.1
20260503081601 40 254 0.9 4.3 0.00 0.00 0.00 71 1012.9
20260503080108 40 0 1.7 5.2 0.00 0.00 0.00 71 1012.8
20260503071608 41 0 1.7 5.2 0.00 0.00 0.00 72 1012.4
20260503054601 41 257 0.9 3.5 0.00 0.00 0.00 72 1012.5